This is the latest recevied weather packets stored in our database for station/object BRIVER. If no packets are shown the sender has not sent any weather packets the latest 1 day(s).
| Time | Temp. | Humidity | Pressure | Rain* | Wind** | Luminosity | Snow |
|---|---|---|---|---|---|---|---|
| 1778011229 | 11.67° C | 88% | 1013.2 hPa | 0 mm | 3.58 m/s, 229° | - | - |
| 1778010929 | 11.67° C | 89% | 1013.2 hPa | 0 mm | 2.68 m/s, 207° | - | - |
| 1778010629 | 11.67° C | 90% | 1013.2 hPa | 0 mm | 2.68 m/s, 239° | - | - |
| 1778010390 | 11.11° C | 90% | 1013.2 hPa | 0 mm | 3.13 m/s, 232° | - | - |
| 1778010329 | 11.11° C | 90% | 1013.2 hPa | 0 mm | 3.58 m/s, 229° | - | - |
| 1778010029 | 11.11° C | 88% | 1013.2 hPa | 0 mm | 3.13 m/s, 232° | - | - |
| 1778009850 | 11.11° C | 88% | 1013.2 hPa | 0 mm | 2.68 m/s, 233° | - | - |
| 1778009729 | 11.11° C | 88% | 1013.1 hPa | 0 mm | 2.68 m/s, 221° | - | - |
| 1778009429 | 11.11° C | 89% | 1013.2 hPa | 0 mm | 3.13 m/s, 259° | - | - |
| 1778009310 | 11.11° C | 90% | 1013.2 hPa | 0 mm | 3.13 m/s, 228° | - | - |
| 1778009129 | 11.11° C | 90% | 1013.2 hPa | 0 mm | 3.13 m/s, 260° | - | - |
| 1778008829 | 10.56° C | 91% | 1013.1 hPa | 0 mm | 3.13 m/s, 229° | - | - |
| 1778008771 | 10.56° C | 91% | 1013.1 hPa | 0 mm | 3.13 m/s, 246° | - | - |
| 1778008529 | 10.56° C | 92% | 1013 hPa | 0 mm | 2.68 m/s, 213° | - | - |
| 1778008229 | 10.56° C | 91% | 1013 hPa | 0 mm | 3.13 m/s, 238° | - | - |
| 1778007936 | 10.56° C | 91% | 1013 hPa | 0 mm | 2.68 m/s, 262° | - | - |
| 1778007690 | 11.11° C | 89% | 1013.1 hPa | 0 mm | 2.68 m/s, 240° | - | - |
| 1778007629 | 11.11° C | 88% | 1013 hPa | 0 mm | 2.24 m/s, 250° | - | - |
| 1778007329 | 11.67° C | 87% | 1013 hPa | 0 mm | 2.24 m/s, 265° | - | - |
| 1778007151 | 11.67° C | 88% | 1013 hPa | 0 mm | 2.24 m/s, 263° | - | - |
| 1778007029 | 11.11° C | 88% | 1013 hPa | 0 mm | 2.24 m/s, 299° | - | - |
| 1778006729 | 11.11° C | 88% | 1013 hPa | 0 mm | 1.79 m/s, 283° | - | - |
| 1778006610 | 11.11° C | 87% | 1012.9 hPa | 0 mm | 1.79 m/s, 276° | - | - |
| 1778006429 | 11.11° C | 87% | 1013.1 hPa | 0 mm | 1.34 m/s, 289° | - | - |
| 1778006129 | 11.11° C | 85% | 1013 hPa | 0 mm | 1.34 m/s, 311° | - | - |
* Rain latest hour (hover to see other rain measurements)
** Current wind speed in m/s (hover to see current wind gust speed)